Year,Month,Day,Hour,Minute,Value (Times are PST for temperature in C)
2013,10,24,00,00,4.30
2013,10,24,00,01,4.30
2013,10,24,00,02,4.30
2013,10,24,00,03,4.30
2013,10,24,00,04,4.30
2013,10,24,00,05,4.30
2013,10,24,00,06,4.20
2013,10,24,00,07,4.20
2013,10,24,00,08,4.20
2013,10,24,00,09,4.20
2013,10,24,00,10,4.20
2013,10,24,00,11,4.20
2013,10,24,00,12,4.20
2013,10,24,00,13,4.20
2013,10,24,00,14,4.20
2013,10,24,00,15,4.20
2013,10,24,00,16,4.10
2013,10,24,00,17,4.10
2013,10,24,00,18,4.10
2013,10,24,00,19,4.10
2013,10,24,00,20,4.10
2013,10,24,00,21,4.10
2013,10,24,00,22,4.10
2013,10,24,00,23,4.10
2013,10,24,00,24,4.10
2013,10,24,00,25,4.10
2013,10,24,00,26,4.10
2013,10,24,00,27,4.00
2013,10,24,00,28,4.00
2013,10,24,00,29,4.00
2013,10,24,00,30,4.00
2013,10,24,00,31,4.00
2013,10,24,00,32,4.00
2013,10,24,00,33,3.90
2013,10,24,00,34,3.90
2013,10,24,00,35,3.90
2013,10,24,00,36,3.90
2013,10,24,00,37,3.90
2013,10,24,00,38,3.90
2013,10,24,00,39,3.90
2013,10,24,00,40,3.90
2013,10,24,00,41,3.90
2013,10,24,00,42,3.90
2013,10,24,00,43,3.90
2013,10,24,00,44,3.90
2013,10,24,00,45,3.90
2013,10,24,00,46,3.90
2013,10,24,00,47,3.90
2013,10,24,00,48,3.90
2013,10,24,00,49,3.90
2013,10,24,00,50,3.80
2013,10,24,00,51,3.80
2013,10,24,00,52,3.80
2013,10,24,00,53,3.80
2013,10,24,00,54,3.80
2013,10,24,00,55,3.80
2013,10,24,00,56,3.80
2013,10,24,00,57,3.80
2013,10,24,00,58,3.80
2013,10,24,00,59,3.80
2013,10,24,01,00,3.80
2013,10,24,01,01,3.80
2013,10,24,01,02,3.80
2013,10,24,01,03,3.80
2013,10,24,01,04,3.80
2013,10,24,01,05,3.80
2013,10,24,01,06,3.80
2013,10,24,01,07,3.80
2013,10,24,01,08,3.70
2013,10,24,01,09,3.70
2013,10,24,01,10,3.70
2013,10,24,01,11,3.70
2013,10,24,01,12,3.80
2013,10,24,01,13,3.80
2013,10,24,01,14,3.80
2013,10,24,01,15,3.80
2013,10,24,01,16,3.80
2013,10,24,01,17,3.80
2013,10,24,01,18,3.70
2013,10,24,01,19,3.70
2013,10,24,01,20,3.70
2013,10,24,01,21,3.70
2013,10,24,01,22,3.70
2013,10,24,01,23,3.70
2013,10,24,01,24,3.60
2013,10,24,01,25,3.60
2013,10,24,01,26,3.60
2013,10,24,01,27,3.60
2013,10,24,01,28,3.50
2013,10,24,01,29,3.50
2013,10,24,01,30,3.50
2013,10,24,01,31,3.50
2013,10,24,01,32,3.50
2013,10,24,01,33,3.50
2013,10,24,01,34,3.50
2013,10,24,01,35,3.50
2013,10,24,01,36,3.50
2013,10,24,01,37,3.50
2013,10,24,01,38,3.50
2013,10,24,01,39,3.50
2013,10,24,01,40,3.50
2013,10,24,01,41,3.50
2013,10,24,01,42,3.50
2013,10,24,01,43,3.50
2013,10,24,01,44,3.50
2013,10,24,01,45,3.50
2013,10,24,01,46,3.50
2013,10,24,01,47,3.40
2013,10,24,01,48,3.40
2013,10,24,01,49,3.40
2013,10,24,01,50,3.40
2013,10,24,01,51,3.40
2013,10,24,01,52,3.40
2013,10,24,01,53,3.40
2013,10,24,01,54,3.30
2013,10,24,01,55,3.30
2013,10,24,01,56,3.30
2013,10,24,01,57,3.30
2013,10,24,01,58,3.30
2013,10,24,01,59,3.30
2013,10,24,02,00,3.30
2013,10,24,02,01,3.30
2013,10,24,02,02,3.30
2013,10,24,02,03,3.20
2013,10,24,02,04,3.20
2013,10,24,02,05,3.20
2013,10,24,02,06,3.20
2013,10,24,02,07,3.20
2013,10,24,02,08,3.30
2013,10,24,02,09,3.30
2013,10,24,02,10,3.30
2013,10,24,02,11,3.20
2013,10,24,02,12,3.20
2013,10,24,02,13,3.20
2013,10,24,02,14,3.20
2013,10,24,02,15,3.20
2013,10,24,02,16,3.20
2013,10,24,02,17,3.20
2013,10,24,02,18,3.20
2013,10,24,02,19,3.20
2013,10,24,02,20,3.20
2013,10,24,02,21,3.20
2013,10,24,02,22,3.20
2013,10,24,02,23,3.20
2013,10,24,02,24,3.20
2013,10,24,02,25,3.20
2013,10,24,02,26,3.20
2013,10,24,02,27,3.20
2013,10,24,02,28,3.20
2013,10,24,02,29,3.20
2013,10,24,02,30,3.20
2013,10,24,02,31,3.20
2013,10,24,02,32,3.20
2013,10,24,02,33,3.20
2013,10,24,02,34,3.10
2013,10,24,02,35,3.10
2013,10,24,02,36,3.10
2013,10,24,02,37,3.10
2013,10,24,02,38,3.10
2013,10,24,02,39,3.10
2013,10,24,02,40,3.10
2013,10,24,02,41,3.10
2013,10,24,02,42,3.10
2013,10,24,02,43,3.10
2013,10,24,02,44,3.10
2013,10,24,02,45,3.10
2013,10,24,02,46,3.10
2013,10,24,02,47,3.10
2013,10,24,02,48,3.10
2013,10,24,02,49,3.10
2013,10,24,02,50,3.10
2013,10,24,02,51,3.10
2013,10,24,02,52,3.10
2013,10,24,02,53,3.10
2013,10,24,02,54,3.10
2013,10,24,02,55,3.00
2013,10,24,02,56,3.00
2013,10,24,02,57,3.00
2013,10,24,02,58,3.00
2013,10,24,02,59,3.00
2013,10,24,03,00,3.00
2013,10,24,03,01,2.90
2013,10,24,03,02,2.90
2013,10,24,03,03,2.90
2013,10,24,03,04,2.90
2013,10,24,03,05,2.90
2013,10,24,03,06,2.90
2013,10,24,03,07,2.90
2013,10,24,03,08,2.90
2013,10,24,03,09,2.90
2013,10,24,03,10,2.80
2013,10,24,03,11,2.80
2013,10,24,03,12,2.80
2013,10,24,03,13,2.80
2013,10,24,03,14,2.80
2013,10,24,03,15,2.80
2013,10,24,03,16,2.80
2013,10,24,03,17,2.80
2013,10,24,03,18,2.80
2013,10,24,03,19,2.80
2013,10,24,03,20,2.80
2013,10,24,03,21,2.80
2013,10,24,03,22,2.80
2013,10,24,03,23,2.80
2013,10,24,03,24,2.80
2013,10,24,03,25,2.80
2013,10,24,03,26,2.80
2013,10,24,03,27,2.80
2013,10,24,03,28,2.70
2013,10,24,03,29,2.70
2013,10,24,03,30,2.70
2013,10,24,03,31,2.70
2013,10,24,03,32,2.70
2013,10,24,03,33,2.70
2013,10,24,03,34,2.70
2013,10,24,03,35,2.70
2013,10,24,03,36,2.70
2013,10,24,03,37,2.60
2013,10,24,03,38,2.60
2013,10,24,03,39,2.60
2013,10,24,03,40,2.60
2013,10,24,03,41,2.60
2013,10,24,03,42,2.60
2013,10,24,03,43,2.60
2013,10,24,03,44,2.60
2013,10,24,03,45,2.60
2013,10,24,03,46,2.60
2013,10,24,03,47,2.60
2013,10,24,03,48,2.60
2013,10,24,03,49,2.60
2013,10,24,03,50,2.50
2013,10,24,03,51,2.50
2013,10,24,03,52,2.50
2013,10,24,03,53,2.50
2013,10,24,03,54,2.50
2013,10,24,03,55,2.40
2013,10,24,03,56,2.40
2013,10,24,03,57,2.40
2013,10,24,03,58,2.40
2013,10,24,03,59,2.40
2013,10,24,04,00,2.40
2013,10,24,04,01,2.40
2013,10,24,04,02,2.40
2013,10,24,04,03,2.40
2013,10,24,04,04,2.40
2013,10,24,04,05,2.40
2013,10,24,04,06,2.40
2013,10,24,04,07,2.40
2013,10,24,04,08,2.40
2013,10,24,04,09,2.40
2013,10,24,04,10,2.50
2013,10,24,04,11,2.50
2013,10,24,04,12,2.50
2013,10,24,04,13,2.50
2013,10,24,04,14,2.60
2013,10,24,04,15,2.60
2013,10,24,04,16,2.60
2013,10,24,04,17,2.60
2013,10,24,04,18,2.60
2013,10,24,04,19,2.60
2013,10,24,04,20,2.60
2013,10,24,04,21,2.60
2013,10,24,04,22,2.60
2013,10,24,04,23,2.60
2013,10,24,04,24,2.60
2013,10,24,04,25,2.60
2013,10,24,04,26,2.60
2013,10,24,04,27,2.50
2013,10,24,04,28,2.60
2013,10,24,04,29,2.60
2013,10,24,04,30,2.50
2013,10,24,04,31,2.50
2013,10,24,04,32,2.50
2013,10,24,04,33,2.50
2013,10,24,04,34,2.50
2013,10,24,04,35,2.50
2013,10,24,04,36,2.50
2013,10,24,04,37,2.50
2013,10,24,04,38,2.40
2013,10,24,04,39,2.40
2013,10,24,04,40,2.40
2013,10,24,04,41,2.40
2013,10,24,04,42,2.40
2013,10,24,04,43,2.40
2013,10,24,04,44,2.30
2013,10,24,04,45,2.30
2013,10,24,04,46,2.30
2013,10,24,04,47,2.30
2013,10,24,04,48,2.30
2013,10,24,04,49,2.30
2013,10,24,04,50,2.30
2013,10,24,04,51,2.30
2013,10,24,04,52,2.30
2013,10,24,04,53,2.30
2013,10,24,04,54,2.30
2013,10,24,04,55,2.30
2013,10,24,04,56,2.30
2013,10,24,04,57,2.30
2013,10,24,04,58,2.30
2013,10,24,04,59,2.30
2013,10,24,05,00,2.30
2013,10,24,05,01,2.30
2013,10,24,05,02,2.30
2013,10,24,05,03,2.30
2013,10,24,05,04,2.30
2013,10,24,05,05,2.30
2013,10,24,05,06,2.30
2013,10,24,05,07,2.30
2013,10,24,05,08,2.30
2013,10,24,05,09,2.30
2013,10,24,05,10,2.20
2013,10,24,05,11,2.20
2013,10,24,05,12,2.20
2013,10,24,05,13,2.20
2013,10,24,05,14,2.20
2013,10,24,05,15,2.20
2013,10,24,05,16,2.20
2013,10,24,05,17,2.20
2013,10,24,05,18,2.20
2013,10,24,05,19,2.20
2013,10,24,05,20,2.20
2013,10,24,05,21,2.20
2013,10,24,05,22,2.10
2013,10,24,05,23,2.10
2013,10,24,05,24,2.10
2013,10,24,05,25,2.10
2013,10,24,05,26,2.10
2013,10,24,05,27,2.10
2013,10,24,05,28,2.10
2013,10,24,05,29,2.10
2013,10,24,05,30,2.10
2013,10,24,05,31,2.10
2013,10,24,05,32,2.10
2013,10,24,05,33,2.10
2013,10,24,05,34,2.10
2013,10,24,05,35,2.10
2013,10,24,05,36,2.10
2013,10,24,05,37,2.10
2013,10,24,05,38,2.10
2013,10,24,05,39,2.10
2013,10,24,05,40,2.10
2013,10,24,05,41,2.10
2013,10,24,05,42,2.20
2013,10,24,05,43,2.20
2013,10,24,05,44,2.20
2013,10,24,05,45,2.20
2013,10,24,05,46,2.10
2013,10,24,05,47,2.10
2013,10,24,05,48,2.10
2013,10,24,05,49,2.10
2013,10,24,05,50,2.10
2013,10,24,05,51,2.10
2013,10,24,05,52,2.00
2013,10,24,05,53,2.00
2013,10,24,05,54,2.00
2013,10,24,05,55,2.00
2013,10,24,05,56,2.00
2013,10,24,05,57,2.00
2013,10,24,05,58,2.00
2013,10,24,05,59,2.00
2013,10,24,06,00,1.90
2013,10,24,06,01,1.90
2013,10,24,06,02,1.90
2013,10,24,06,03,1.90
2013,10,24,06,04,1.90
2013,10,24,06,05,1.90
2013,10,24,06,06,1.90
2013,10,24,06,07,1.90
2013,10,24,06,08,1.90
2013,10,24,06,09,1.90
2013,10,24,06,10,1.90
2013,10,24,06,11,1.90
2013,10,24,06,12,1.90
2013,10,24,06,13,1.90
2013,10,24,06,14,1.90
2013,10,24,06,15,1.90
2013,10,24,06,16,1.90
2013,10,24,06,17,1.90
2013,10,24,06,18,1.90
2013,10,24,06,19,1.80
2013,10,24,06,20,1.80
2013,10,24,06,21,1.80
2013,10,24,06,22,1.80
2013,10,24,06,23,1.80
2013,10,24,06,24,1.80
2013,10,24,06,25,1.80
2013,10,24,06,26,1.80
2013,10,24,06,27,1.80
2013,10,24,06,28,1.80
2013,10,24,06,29,1.80
2013,10,24,06,30,1.80
2013,10,24,06,31,1.80
2013,10,24,06,32,1.80
2013,10,24,06,33,1.80
2013,10,24,06,34,1.80
2013,10,24,06,35,1.80
2013,10,24,06,36,1.80
2013,10,24,06,37,1.80
2013,10,24,06,38,1.80
2013,10,24,06,39,1.80
2013,10,24,06,40,1.80
2013,10,24,06,41,1.80
2013,10,24,06,42,1.80
2013,10,24,06,43,1.80
2013,10,24,06,44,1.80
2013,10,24,06,45,1.80
2013,10,24,06,46,1.80
2013,10,24,06,47,1.70
2013,10,24,06,48,1.70
2013,10,24,06,49,1.70
2013,10,24,06,50,1.70
2013,10,24,06,51,1.70
2013,10,24,06,52,1.70
2013,10,24,06,53,1.70
2013,10,24,06,54,1.70
2013,10,24,06,55,1.70
2013,10,24,06,56,1.70
2013,10,24,06,57,1.70
2013,10,24,06,58,1.70
2013,10,24,06,59,1.70
2013,10,24,07,00,1.60
2013,10,24,07,01,1.60
2013,10,24,07,02,1.60
2013,10,24,07,03,1.60
2013,10,24,07,04,1.60
2013,10,24,07,05,1.60
2013,10,24,07,06,1.60
2013,10,24,07,07,1.60
2013,10,24,07,08,1.60
2013,10,24,07,09,1.60
2013,10,24,07,10,1.60
2013,10,24,07,11,1.60
2013,10,24,07,12,1.60
2013,10,24,07,13,1.60
2013,10,24,07,14,1.60
2013,10,24,07,15,1.60
2013,10,24,07,16,1.60
2013,10,24,07,17,1.60
2013,10,24,07,18,1.60
2013,10,24,07,19,1.60
2013,10,24,07,20,1.60
2013,10,24,07,21,1.60
2013,10,24,07,22,1.60
2013,10,24,07,23,1.60
2013,10,24,07,24,1.60
2013,10,24,07,25,1.60
2013,10,24,07,26,1.60
2013,10,24,07,27,1.60
2013,10,24,07,28,1.60
2013,10,24,07,29,1.60
2013,10,24,07,30,1.60
2013,10,24,07,31,1.60
2013,10,24,07,32,1.60
2013,10,24,07,33,1.60
2013,10,24,07,34,1.60
2013,10,24,07,35,1.60
2013,10,24,07,36,1.50
2013,10,24,07,37,1.50
2013,10,24,07,38,1.50
2013,10,24,07,39,1.50
2013,10,24,07,40,1.50
2013,10,24,07,41,1.50
2013,10,24,07,42,1.50
2013,10,24,07,43,1.50
2013,10,24,07,44,1.50
2013,10,24,07,45,1.50
2013,10,24,07,46,1.50
2013,10,24,07,47,1.50
2013,10,24,07,48,1.50
2013,10,24,07,49,1.50
2013,10,24,07,50,1.40
2013,10,24,07,51,1.40
2013,10,24,07,52,1.40
2013,10,24,07,53,1.40
2013,10,24,07,54,1.40
2013,10,24,07,55,1.40
2013,10,24,07,56,1.40
2013,10,24,07,57,1.50
2013,10,24,07,58,1.50
2013,10,24,07,59,1.50
2013,10,24,08,00,1.50
2013,10,24,08,01,1.50
2013,10,24,08,02,1.50
2013,10,24,08,03,1.50
2013,10,24,08,04,1.50
2013,10,24,08,05,1.50
2013,10,24,08,06,1.50
2013,10,24,08,07,1.50
2013,10,24,08,08,1.50
2013,10,24,08,09,1.50
2013,10,24,08,10,1.50
2013,10,24,08,11,1.50
2013,10,24,08,12,1.50
2013,10,24,08,13,1.50
2013,10,24,08,14,1.50
2013,10,24,08,15,1.50
2013,10,24,08,16,1.50
2013,10,24,08,17,1.50
2013,10,24,08,18,1.50
2013,10,24,08,19,1.50
2013,10,24,08,20,1.50
2013,10,24,08,21,1.50
2013,10,24,08,22,1.50
2013,10,24,08,23,1.50
2013,10,24,08,24,1.50
2013,10,24,08,25,1.50
2013,10,24,08,26,1.50
2013,10,24,08,27,1.50
2013,10,24,08,28,1.50
2013,10,24,08,29,1.50
2013,10,24,08,30,1.60
2013,10,24,08,31,1.60
2013,10,24,08,32,1.60
2013,10,24,08,33,1.60
2013,10,24,08,34,1.60
2013,10,24,08,35,1.70
2013,10,24,08,36,1.70
2013,10,24,08,37,1.70
2013,10,24,08,38,1.70
2013,10,24,08,39,1.70
2013,10,24,08,40,1.70
2013,10,24,08,41,1.80
2013,10,24,08,42,1.80
2013,10,24,08,43,1.80
2013,10,24,08,44,1.80
2013,10,24,08,45,1.90
2013,10,24,08,46,1.90
2013,10,24,08,47,1.90
2013,10,24,08,48,1.90
2013,10,24,08,49,2.00
2013,10,24,08,50,2.00
2013,10,24,08,51,2.00
2013,10,24,08,52,2.00
2013,10,24,08,53,2.00
2013,10,24,08,54,2.10
2013,10,24,08,55,2.10
2013,10,24,08,56,2.10
2013,10,24,08,57,2.10
2013,10,24,08,58,2.10
2013,10,24,08,59,2.20
2013,10,24,09,00,2.20
2013,10,24,09,01,2.20
2013,10,24,09,02,2.20
2013,10,24,09,03,2.30
2013,10,24,09,04,2.30
2013,10,24,09,05,2.30
2013,10,24,09,06,2.40
2013,10,24,09,07,2.40
2013,10,24,09,08,2.40
2013,10,24,09,09,2.50
2013,10,24,09,10,2.60
2013,10,24,09,11,2.60
2013,10,24,09,12,2.70
2013,10,24,09,13,2.70
2013,10,24,09,14,2.80
2013,10,24,09,15,2.80
2013,10,24,09,16,2.90
2013,10,24,09,17,2.90
2013,10,24,09,18,3.00
2013,10,24,09,19,3.00
2013,10,24,09,20,3.10
2013,10,24,09,21,3.10
2013,10,24,09,22,3.10
2013,10,24,09,23,3.20
2013,10,24,09,24,3.20
2013,10,24,09,25,3.20
2013,10,24,09,26,3.30
2013,10,24,09,27,3.40
2013,10,24,09,28,3.40
2013,10,24,09,29,3.40
2013,10,24,09,30,3.50
2013,10,24,09,31,3.60
2013,10,24,09,32,3.60
2013,10,24,09,33,3.60
2013,10,24,09,34,3.70
2013,10,24,09,35,3.70
2013,10,24,09,36,3.70
2013,10,24,09,37,3.80
2013,10,24,09,38,3.80
2013,10,24,09,39,3.90
2013,10,24,09,40,4.00
2013,10,24,09,41,4.00
2013,10,24,09,42,4.10
2013,10,24,09,43,4.20
2013,10,24,09,44,4.30
2013,10,24,09,45,4.40
2013,10,24,09,46,4.40
2013,10,24,09,47,4.50
2013,10,24,09,48,4.60
2013,10,24,09,49,4.70
2013,10,24,09,50,4.70
2013,10,24,09,51,4.80
2013,10,24,09,52,4.90
2013,10,24,09,53,5.00
2013,10,24,09,54,5.10
2013,10,24,09,55,5.20
2013,10,24,09,56,5.30
2013,10,24,09,57,5.40
2013,10,24,09,58,5.50
2013,10,24,09,59,5.60
2013,10,24,10,00,5.70
2013,10,24,10,01,5.70
2013,10,24,10,02,5.80
2013,10,24,10,03,5.90
2013,10,24,10,04,6.00
2013,10,24,10,05,6.10
2013,10,24,10,06,6.20
2013,10,24,10,07,6.30
2013,10,24,10,08,6.40
2013,10,24,10,09,6.50
2013,10,24,10,10,6.60
2013,10,24,10,11,6.60
2013,10,24,10,12,6.70
2013,10,24,10,13,6.80
2013,10,24,10,14,6.90
2013,10,24,10,15,6.90
2013,10,24,10,16,7.00
2013,10,24,10,17,7.10
2013,10,24,10,18,7.20
2013,10,24,10,19,7.20
2013,10,24,10,20,7.20
2013,10,24,10,21,7.30
2013,10,24,10,22,7.30
2013,10,24,10,23,7.30
2013,10,24,10,24,7.30
2013,10,24,10,25,7.30
2013,10,24,10,26,7.30
2013,10,24,10,27,7.30
2013,10,24,10,28,7.30
2013,10,24,10,29,7.30
2013,10,24,10,30,7.30
2013,10,24,10,31,7.30
2013,10,24,10,32,7.30
2013,10,24,10,33,7.30
2013,10,24,10,34,7.30
2013,10,24,10,35,7.30
2013,10,24,10,36,7.30
2013,10,24,10,37,7.30
2013,10,24,10,38,7.30
2013,10,24,10,39,7.30
2013,10,24,10,40,7.30
2013,10,24,10,41,7.40
2013,10,24,10,42,7.40
2013,10,24,10,43,7.40
2013,10,24,10,44,7.40
2013,10,24,10,45,7.40
2013,10,24,10,46,7.50
2013,10,24,10,47,7.50
2013,10,24,10,48,7.50
2013,10,24,10,49,7.50
2013,10,24,10,50,7.50
2013,10,24,10,51,7.50
2013,10,24,10,52,7.50
2013,10,24,10,53,7.50
2013,10,24,10,54,7.50
2013,10,24,10,55,7.50
2013,10,24,10,56,7.60
2013,10,24,10,57,7.60
2013,10,24,10,58,7.60
2013,10,24,10,59,7.60
2013,10,24,11,00,7.60
2013,10,24,11,01,7.70
2013,10,24,11,02,7.70
2013,10,24,11,03,7.70
2013,10,24,11,04,7.70
2013,10,24,11,05,7.70
2013,10,24,11,06,7.70
2013,10,24,11,07,7.70
2013,10,24,11,08,7.70
2013,10,24,11,09,7.70
2013,10,24,11,10,7.80
2013,10,24,11,11,7.80
2013,10,24,11,12,7.80
2013,10,24,11,13,7.80
2013,10,24,11,14,7.90
2013,10,24,11,15,7.90
2013,10,24,11,16,7.90
2013,10,24,11,17,8.00
2013,10,24,11,18,8.00
2013,10,24,11,19,8.00
2013,10,24,11,20,8.10
2013,10,24,11,21,8.10
2013,10,24,11,22,8.10
2013,10,24,11,23,8.20
2013,10,24,11,24,8.20
2013,10,24,11,25,8.20
2013,10,24,11,26,8.20
2013,10,24,11,27,8.20
2013,10,24,11,28,8.30
2013,10,24,11,29,8.30
2013,10,24,11,30,8.30
2013,10,24,11,31,8.30
2013,10,24,11,32,8.30
2013,10,24,11,33,8.30
2013,10,24,11,34,8.30
2013,10,24,11,35,8.30
2013,10,24,11,36,8.30
2013,10,24,11,37,8.30
2013,10,24,11,38,8.40
2013,10,24,11,39,8.40
2013,10,24,11,40,8.40
2013,10,24,11,41,8.40
2013,10,24,11,42,8.40
2013,10,24,11,43,8.40
2013,10,24,11,44,8.40
2013,10,24,11,45,8.40
2013,10,24,11,46,8.40
2013,10,24,11,47,8.40
2013,10,24,11,48,8.40
2013,10,24,11,49,8.40
2013,10,24,11,50,8.40
2013,10,24,11,51,8.40
2013,10,24,11,52,8.50
2013,10,24,11,53,8.50
2013,10,24,11,54,8.50
2013,10,24,11,55,8.50
2013,10,24,11,56,8.50
2013,10,24,11,57,8.50
2013,10,24,11,58,8.60
2013,10,24,11,59,8.60
2013,10,24,12,00,8.60
2013,10,24,12,01,8.60
2013,10,24,12,02,8.60
2013,10,24,12,03,8.70
2013,10,24,12,04,8.70
2013,10,24,12,05,8.70
2013,10,24,12,06,8.60
2013,10,24,12,07,8.60
2013,10,24,12,08,8.60
2013,10,24,12,09,8.60
2013,10,24,12,10,8.50
2013,10,24,12,11,8.40
2013,10,24,12,12,8.40
2013,10,24,12,13,8.30
2013,10,24,12,14,8.30
2013,10,24,12,15,8.20
2013,10,24,12,16,8.20
2013,10,24,12,17,8.20
2013,10,24,12,18,8.10
2013,10,24,12,19,8.10
2013,10,24,12,20,8.10
2013,10,24,12,21,8.10
2013,10,24,12,22,8.00
2013,10,24,12,23,8.00
2013,10,24,12,24,8.00
2013,10,24,12,25,8.00
2013,10,24,12,26,8.00
2013,10,24,12,27,8.10
2013,10,24,12,28,8.10
2013,10,24,12,29,8.10
2013,10,24,12,30,8.20
2013,10,24,12,31,8.20
2013,10,24,12,32,8.20
2013,10,24,12,33,8.20
2013,10,24,12,34,8.30
2013,10,24,12,35,8.30
2013,10,24,12,36,8.30
2013,10,24,12,37,8.30
2013,10,24,12,38,8.30
2013,10,24,12,39,8.40
2013,10,24,12,40,8.40
2013,10,24,12,41,8.50
2013,10,24,12,42,8.50
2013,10,24,12,43,8.60
2013,10,24,12,44,8.60
2013,10,24,12,45,8.70
2013,10,24,12,46,8.70
2013,10,24,12,47,8.80
2013,10,24,12,48,8.80
2013,10,24,12,49,8.80
2013,10,24,12,50,8.80
2013,10,24,12,51,8.90
2013,10,24,12,52,8.90
2013,10,24,12,53,8.90
2013,10,24,12,54,9.00
2013,10,24,12,55,9.00
2013,10,24,12,56,9.10
2013,10,24,12,57,9.20
2013,10,24,12,58,9.20
2013,10,24,12,59,9.30
2013,10,24,13,00,9.40
2013,10,24,13,01,9.50
2013,10,24,13,02,9.50
2013,10,24,13,03,9.60
2013,10,24,13,04,9.70
2013,10,24,13,05,9.70
2013,10,24,13,06,9.80
2013,10,24,13,07,9.80
2013,10,24,13,08,9.90
2013,10,24,13,09,10.00
2013,10,24,13,10,10.10
2013,10,24,13,11,10.20
2013,10,24,13,12,10.30
2013,10,24,13,13,10.30
2013,10,24,13,14,10.40
2013,10,24,13,15,10.50
2013,10,24,13,16,10.50
2013,10,24,13,17,10.60
2013,10,24,13,18,10.60
2013,10,24,13,19,10.70
2013,10,24,13,20,10.70
2013,10,24,13,21,10.80
2013,10,24,13,22,10.80
2013,10,24,13,23,10.80
2013,10,24,13,24,10.80
2013,10,24,13,25,10.80
2013,10,24,13,26,10.80
2013,10,24,13,27,10.80
2013,10,24,13,28,10.80
2013,10,24,13,29,10.80
2013,10,24,13,30,10.80
2013,10,24,13,31,10.80
2013,10,24,13,32,10.70
2013,10,24,13,33,10.70
2013,10,24,13,34,10.70
2013,10,24,13,35,10.70
2013,10,24,13,36,10.70
2013,10,24,13,37,10.70
2013,10,24,13,38,10.70
2013,10,24,13,39,10.70
2013,10,24,13,40,10.70
2013,10,24,13,41,10.70
2013,10,24,13,42,10.80
2013,10,24,13,43,10.80
2013,10,24,13,44,10.80
2013,10,24,13,45,10.80
2013,10,24,13,46,10.80
2013,10,24,13,47,10.80
2013,10,24,13,48,10.80
2013,10,24,13,49,10.80
2013,10,24,13,50,10.80
2013,10,24,13,51,10.80
2013,10,24,13,52,10.80
2013,10,24,13,53,10.90
2013,10,24,13,54,10.90
2013,10,24,13,55,10.90
2013,10,24,13,56,10.90
2013,10,24,13,57,11.00
2013,10,24,13,58,11.00
2013,10,24,13,59,11.10
2013,10,24,14,00,11.10
2013,10,24,14,01,11.20
2013,10,24,14,02,11.20
2013,10,24,14,03,11.20
2013,10,24,14,04,11.30
2013,10,24,14,05,11.30
2013,10,24,14,06,11.30
2013,10,24,14,07,11.30
2013,10,24,14,08,11.30
2013,10,24,14,09,11.30
2013,10,24,14,10,11.20
2013,10,24,14,11,11.20
2013,10,24,14,12,11.20
2013,10,24,14,13,11.20
2013,10,24,14,14,11.20
2013,10,24,14,15,11.20
2013,10,24,14,16,11.20
2013,10,24,14,17,11.20
2013,10,24,14,18,11.20
2013,10,24,14,19,11.20
2013,10,24,14,20,11.20
2013,10,24,14,21,11.20
2013,10,24,14,22,11.20
2013,10,24,14,23,11.20
2013,10,24,14,24,11.20
2013,10,24,14,25,11.20
2013,10,24,14,26,11.20
2013,10,24,14,27,11.10
2013,10,24,14,28,11.10
2013,10,24,14,29,11.10
2013,10,24,14,30,11.10
2013,10,24,14,31,11.10
2013,10,24,14,32,11.10
2013,10,24,14,33,11.10
2013,10,24,14,34,11.10
2013,10,24,14,35,11.20
2013,10,24,14,36,11.20
2013,10,24,14,37,11.20
2013,10,24,14,38,11.20
2013,10,24,14,39,11.20
2013,10,24,14,40,11.30
2013,10,24,14,41,11.30
2013,10,24,14,42,11.30
2013,10,24,14,43,11.40
2013,10,24,14,44,11.40
2013,10,24,14,45,11.50
2013,10,24,14,46,11.50
2013,10,24,14,47,11.50
2013,10,24,14,48,11.50
2013,10,24,14,49,11.50
2013,10,24,14,50,11.50
2013,10,24,14,51,11.50
2013,10,24,14,52,11.50
2013,10,24,14,53,11.50
2013,10,24,14,54,11.40
2013,10,24,14,55,11.40
2013,10,24,14,56,11.40
2013,10,24,14,57,11.40
2013,10,24,14,58,11.30
2013,10,24,14,59,11.30
2013,10,24,15,00,11.30
2013,10,24,15,01,11.30
2013,10,24,15,02,11.30
2013,10,24,15,03,11.30
2013,10,24,15,04,11.30
2013,10,24,15,05,11.30
2013,10,24,15,06,11.30
2013,10,24,15,07,11.40
2013,10,24,15,08,11.40
2013,10,24,15,09,11.40
2013,10,24,15,10,11.40
2013,10,24,15,11,11.40
2013,10,24,15,12,11.40
2013,10,24,15,13,11.40
2013,10,24,15,14,11.40
2013,10,24,15,15,11.40
2013,10,24,15,16,11.40
2013,10,24,15,17,11.40
2013,10,24,15,18,11.50
2013,10,24,15,19,11.50
2013,10,24,15,20,11.50
2013,10,24,15,21,11.50
2013,10,24,15,22,11.50
2013,10,24,15,23,11.50
2013,10,24,15,24,11.50
2013,10,24,15,25,11.50
2013,10,24,15,26,11.50
2013,10,24,15,27,11.50
2013,10,24,15,28,11.60
2013,10,24,15,29,11.60
2013,10,24,15,30,11.60
2013,10,24,15,31,11.60
2013,10,24,15,32,11.50
2013,10,24,15,33,11.50
2013,10,24,15,34,11.50
2013,10,24,15,35,11.50
2013,10,24,15,36,11.50
2013,10,24,15,37,11.50
2013,10,24,15,38,11.50
2013,10,24,15,39,11.50
2013,10,24,15,40,11.50
2013,10,24,15,41,11.50
2013,10,24,15,42,11.50
2013,10,24,15,43,11.50
2013,10,24,15,44,11.40
2013,10,24,15,45,11.40
2013,10,24,15,46,11.40
2013,10,24,15,47,11.40
2013,10,24,15,48,11.40
2013,10,24,15,49,11.40
2013,10,24,15,50,11.40
2013,10,24,15,51,11.40
2013,10,24,15,52,11.40
2013,10,24,15,53,11.40
2013,10,24,15,54,11.40
2013,10,24,15,55,11.40
2013,10,24,15,56,11.40
2013,10,24,15,57,11.40
2013,10,24,15,58,11.40
2013,10,24,15,59,11.40
2013,10,24,16,00,11.40
2013,10,24,16,01,11.40
2013,10,24,16,02,11.40
2013,10,24,16,03,11.40
2013,10,24,16,04,11.40
2013,10,24,16,05,11.40
2013,10,24,16,06,11.40
2013,10,24,16,07,11.40
2013,10,24,16,08,11.40
2013,10,24,16,09,11.40
2013,10,24,16,10,11.40
2013,10,24,16,11,11.40
2013,10,24,16,12,11.40
2013,10,24,16,13,11.40
2013,10,24,16,14,11.50
2013,10,24,16,15,11.50
2013,10,24,16,16,11.50
2013,10,24,16,17,11.50
2013,10,24,16,18,11.60
2013,10,24,16,19,11.60
2013,10,24,16,20,11.60
2013,10,24,16,21,11.60
2013,10,24,16,22,11.60
2013,10,24,16,23,11.60
2013,10,24,16,24,11.60
2013,10,24,16,25,11.60
2013,10,24,16,26,11.60
2013,10,24,16,27,11.60
2013,10,24,16,28,11.60
2013,10,24,16,29,11.60
2013,10,24,16,30,11.60
2013,10,24,16,31,11.60
2013,10,24,16,32,11.60
2013,10,24,16,33,11.60
2013,10,24,16,34,11.60
2013,10,24,16,35,11.60
2013,10,24,16,36,11.60
2013,10,24,16,37,11.60
2013,10,24,16,38,11.60
2013,10,24,16,39,11.50
2013,10,24,16,40,11.50
2013,10,24,16,41,11.50
2013,10,24,16,42,11.50
2013,10,24,16,43,11.40
2013,10,24,16,44,11.40
2013,10,24,16,45,11.40
2013,10,24,16,46,11.40
2013,10,24,16,47,11.40
2013,10,24,16,48,11.40
2013,10,24,16,49,11.40
2013,10,24,16,50,11.30
2013,10,24,16,51,11.30
2013,10,24,16,52,11.30
2013,10,24,16,53,11.30
2013,10,24,16,54,11.30
2013,10,24,16,55,11.30
2013,10,24,16,56,11.30
2013,10,24,16,57,11.20
2013,10,24,16,58,11.20
2013,10,24,16,59,11.20
2013,10,24,17,00,11.20
2013,10,24,17,01,11.20
2013,10,24,17,02,11.10
2013,10,24,17,03,11.10
2013,10,24,17,04,11.10
2013,10,24,17,05,11.10
2013,10,24,17,06,11.10
2013,10,24,17,07,11.10
2013,10,24,17,08,11.00
2013,10,24,17,09,11.00
2013,10,24,17,10,11.00
2013,10,24,17,11,11.00
2013,10,24,17,12,11.00
2013,10,24,17,13,10.90
2013,10,24,17,14,10.90
2013,10,24,17,15,10.90
2013,10,24,17,16,10.90
2013,10,24,17,17,10.90
2013,10,24,17,18,10.90
2013,10,24,17,19,10.90
2013,10,24,17,20,10.90
2013,10,24,17,21,10.90
2013,10,24,17,22,10.90
2013,10,24,17,23,10.90
2013,10,24,17,24,10.90
2013,10,24,17,25,10.90
2013,10,24,17,26,10.90
2013,10,24,17,27,10.80
2013,10,24,17,28,10.80
2013,10,24,17,29,10.80
2013,10,24,17,30,10.80
2013,10,24,17,31,10.80
2013,10,24,17,32,10.70
2013,10,24,17,33,10.70
2013,10,24,17,34,10.70
2013,10,24,17,35,10.70
2013,10,24,17,36,10.60
2013,10,24,17,37,10.60
2013,10,24,17,38,10.60
2013,10,24,17,39,10.50
2013,10,24,17,40,10.50
2013,10,24,17,41,10.50
2013,10,24,17,42,10.40
2013,10,24,17,43,10.40
2013,10,24,17,44,10.40
2013,10,24,17,45,10.30
2013,10,24,17,46,10.30
2013,10,24,17,47,10.30
2013,10,24,17,48,10.30
2013,10,24,17,49,10.20
2013,10,24,17,50,10.20
2013,10,24,17,51,10.20
2013,10,24,17,52,10.10
2013,10,24,17,53,10.10